Cosmos 1470 Rocket - Orbit

View from above orbital plane
View from above orbital plane
View from above satellite
View from above satellite

Ground track
Ground track

The orbit data is extracted from the following two-line orbital elements,

1 14148U 83061B   13141.18732183  .00000362  00000-0  42203-4 0  3393
2 14148 082.5205 222.4707 0022243 190.5510 228.6293 14.82323789614325
Epoch (UTC): 21 May 2013 04:29:44
Eccentricity: 0.0022243
inclination: 82.5205°
perigee height: 606 km
apogee height: 637 km
right ascension of ascending node: 222.4707°
argument of perigee: 190.5510°
revolutions per day: 14.82323789
mean anomaly at epoch: 228.6293°
orbit number at epoch: 61432

The dashed part of the orbit path shows where the satellite is in the earth's shadow,  

Developed and maintained by Chris Peat, Heavens-Above GmbH. Please read the updated FAQ before sending e-mail. Imprint. DLR